| time (UTC) | temp F | wind direction | speed MPH | gust MPH | rain 1hr in | rain 24hr in | rain mn in | humidity % | barometer mb |
| 20260831050015 | 75 | 180 | 2.0 | 3.0 | 0.00 | 0.00 | 0.00 | 82 | 1019.6 |
| 20260831044516 | 75 | 189 | 0.0 | 2.0 | 0.00 | 0.00 | 0.00 | 81 | 1019.7 |
| 20260831043010 | 76 | 192 | 0.0 | 0.0 | 0.00 | 0.00 | 0.00 | 80 | 1019.8 |
| 20260831041511 | 76 | 211 | 0.0 | 3.0 | 0.00 | 0.00 | 0.00 | 79 | 1019.8 |
| 20260831040018 | 77 | 210 | 0.0 | 3.0 | 0.00 | 0.00 | 0.00 | 78 | 1019.9 |
| 20260831034507 | 77 | 222 | 0.0 | 4.0 | 0.00 | 0.00 | 0.00 | 77 | 1019.9 |
| 20260831033008 | 77 | 206 | 2.0 | 6.0 | 0.00 | 0.00 | 0.00 | 76 | 1019.9 |
| 20260831031508 | 78 | 191 | 1.0 | 6.0 | 0.00 | 0.00 | 0.00 | 76 | 1020.0 |
| 20260831030004 | 78 | 212 | 3.0 | 9.0 | 0.00 | 0.00 | 0.00 | 76 | 1020.1 |
| 20260831024507 | 78 | 213 | 1.0 | 6.0 | 0.00 | 0.00 | 0.00 | 75 | 1020.1 |
| 20260831023003 | 78 | 175 | 0.0 | 2.0 | 0.00 | 0.00 | 0.00 | 74 | 1020.2 |
| 20260831021503 | 78 | 156 | 0.0 | 0.0 | 0.00 | 0.00 | 0.00 | 72 | 1020.2 |
| 20260831020003 | 79 | 157 | 0.0 | 2.0 | 0.00 | 0.00 | 0.00 | 71 | 1020.0 |
| 20260831014504 | 79 | 155 | 0.0 | 5.0 | 0.00 | 0.00 | 0.00 | 70 | 1019.9 |
| 20260831013005 | 80 | 152 | 0.0 | 7.0 | 0.00 | 0.00 | 0.00 | 69 | 1019.8 |
| 20260831011505 | 81 | 205 | 0.0 | 0.0 | 0.00 | 0.00 | 0.00 | 67 | 1019.6 |
| 20260831010001 | 82 | 205 | 0.0 | 0.0 | 0.00 | 0.00 | 0.00 | 66 | 1019.4 |
| 20260831004603 | 82 | 209 | 0.0 | 3.0 | 0.00 | 0.00 | 0.00 | 64 | 1019.4 |
| 20260831003059 | 83 | 194 | 0.0 | 0.0 | 0.00 | 0.00 | 0.00 | 64 | 1019.4 |
| 20260831001620 | 84 | 194 | 0.0 | 0.0 | 0.00 | 0.00 | 0.00 | 62 | 1019.1 |
| 20260831000059 | 85 | 192 | 0.0 | 1.0 | 0.00 | 0.00 | 0.00 | 60 | 1018.9 |
| 20260830234558 | 86 | 205 | 1.0 | 3.0 | 0.00 | 0.00 | 0.00 | 59 | 1019.1 |
| 20260830233118 | 87 | 198 | 1.0 | 5.0 | 0.00 | 0.00 | 0.00 | 57 | 1019.0 |
| 20260830231559 | 88 | 196 | 1.0 | 4.0 | 0.00 | 0.00 | 0.00 | 55 | 1018.9 |
| 20260830230109 | 89 | 201 | 1.0 | 8.0 | 0.00 | 0.00 | 0.00 | 53 | 1018.9 |
| 20260830224556 | 89 | 192 | 1.0 | 4.0 | 0.00 | 0.00 | 0.00 | 52 | 1019.0 |
| 20260830223055 | 90 | 209 | 2.0 | 7.0 | 0.00 | 0.00 | 0.00 | 52 | 1019.0 |
| 20260830221555 | 90 | 211 | 0.0 | 5.0 | 0.00 | 0.00 | 0.00 | 51 | 1018.9 |
| 20260830220054 | 90 | 236 | 6.0 | 11.0 | 0.00 | 0.00 | 0.00 | 50 | 1018.9 |
| 20260830214554 | 90 | 258 | 5.0 | 8.0 | 0.00 | 0.00 | 0.00 | 50 | 1018.9 |
| 20260830213050 | 90 | 279 | 3.0 | 9.0 | 0.00 | 0.00 | 0.00 | 52 | 1018.8 |
| 20260830211554 | 89 | 214 | 2.0 | 10.0 | 0.00 | 0.00 | 0.00 | 53 | 1019.0 |
| 20260830210059 | 90 | 159 | 2.0 | 5.0 | 0.00 | 0.00 | 0.00 | 52 | 1018.9 |
| 20260830204546 | 89 | 225 | 3.0 | 10.0 | 0.00 | 0.00 | 0.00 | 52 | 1019.0 |
| 20260830203045 | 89 | 138 | 3.0 | 8.0 | 0.00 | 0.00 | 0.00 | 52 | 1019.2 |
| 20260830201542 | 88 | 202 | 6.0 | 10.0 | 0.00 | 0.00 | 0.00 | 54 | 1019.3 |
| 20260830200041 | 87 | 239 | 3.0 | 13.0 | 0.00 | 0.00 | 0.00 | 56 | 1019.5 |
| 20260830194553 | 88 | 186 | 2.0 | 7.0 | 0.00 | 0.00 | 0.00 | 56 | 1019.5 |
| 20260830193038 | 87 | 211 | 2.0 | 9.0 | 0.00 | 0.00 | 0.00 | 57 | 1019.8 |
| 20260830191537 | 88 | 142 | 4.0 | 10.0 | 0.00 | 0.00 | 0.00 | 58 | 1020.1 |
| 20260830190033 | 86 | 201 | 6.0 | 11.0 | 0.00 | 0.00 | 0.00 | 58 | 1020.3 |
| 20260830184531 | 87 | 195 | 6.0 | 11.0 | 0.00 | 0.00 | 0.00 | 59 | 1020.7 |
| 20260830183034 | 85 | 293 | 1.0 | 10.0 | 0.00 | 0.00 | 0.00 | 64 | 1021.1 |
| 20260830181526 | 86 | 198 | 4.0 | 7.0 | 0.00 | 0.00 | 0.00 | 64 | 1021.2 |
| 20260830180032 | 85 | 184 | 6.0 | 10.0 | 0.00 | 0.00 | 0.00 | 63 | 1021.4 |
| 20260830174527 | 83 | 256 | 3.0 | 10.0 | 0.00 | 0.00 | 0.00 | 68 | 1021.7 |
| 20260830173020 | 82 | 261 | 3.0 | 9.0 | 0.00 | 0.00 | 0.00 | 69 | 1021.8 |
| 20260830171520 | 83 | 221 | 3.0 | 8.0 | 0.00 | 0.00 | 0.00 | 68 | 1022.2 |
| 20260830170020 | 80 | 67 | 4.0 | 8.0 | 0.00 | 0.00 | 0.00 | 73 | 1022.4 |
| 20260830164515 | 81 | 338 | 2.0 | 4.0 | 0.00 | 0.00 | 0.00 | 73 | 1022.7 |
| 20260830163031 | 80 | 220 | 1.0 | 7.0 | 0.00 | 0.00 | 0.00 | 76 | 1022.8 |
| 20260830161511 | 79 | 291 | 1.0 | 9.0 | 0.00 | 0.00 | 0.00 | 77 | 1022.9 |
| 20260830160028 | 79 | 263 | 2.0 | 8.0 | 0.00 | 0.00 | 0.00 | 78 | 1023.1 |
| 20260830154507 | 77 | 175 | 2.0 | 7.0 | 0.00 | 0.00 | 0.00 | 80 | 1023.1 |
| 20260830153005 | 76 | 232 | 2.0 | 10.0 | 0.00 | 0.00 | 0.00 | 82 | 1023.2 |
| 20260830151506 | 75 | 230 | 5.0 | 8.0 | 0.00 | 0.00 | 0.00 | 83 | 1023.3 |
| 20260830150109 | 75 | 215 | 4.0 | 10.0 | 0.00 | 0.00 | 0.00 | 84 | 1023.1 |
| 20260830144605 | 75 | 198 | 3.0 | 7.0 | 0.00 | 0.00 | 0.00 | 84 | 1023.2 |
| 20260830143057 | 75 | 207 | 2.0 | 7.0 | 0.00 | 0.00 | 0.00 | 85 | 1023.2 |
| 20260830141654 | 75 | 183 | 2.0 | 7.0 | 0.00 | 0.00 | 0.00 | 85 | 1023.2 |
| 20260830140055 | 73 | 169 | 7.0 | 10.0 | 0.00 | 0.00 | 0.00 | 89 | 1023.2 |
| 20260830134601 | 74 | 162 | 3.0 | 9.0 | 0.00 | 0.00 | 0.00 | 88 | 1023.3 |
| 20260830133049 | 74 | 138 | 2.0 | 7.0 | 0.00 | 0.00 | 0.00 | 90 | 1023.4 |
| 20260830131553 | 74 | 177 | 2.0 | 7.0 | 0.00 | 0.00 | 0.00 | 90 | 1023.6 |
| 20260830130059 | 72 | 145 | 3.0 | 7.0 | 0.00 | 0.00 | 0.00 | 94 | 1023.7 |
| 20260830124545 | 70 | 150 | 3.0 | 5.0 | 0.00 | 0.00 | 0.00 | 96 | 1023.7 |
| 20260830123048 | 70 | 146 | 4.0 | 8.0 | 0.00 | 0.00 | 0.00 | 97 | 1023.6 |
| 20260830121552 | 69 | 132 | 2.0 | 7.0 | 0.00 | 0.00 | 0.00 | 97 | 1023.6 |
| 20260830120036 | 69 | 146 | 0.0 | 7.0 | 0.00 | 0.00 | 0.00 | 97 | 1023.6 |
| 20260830114534 | 69 | 148 | 0.0 | 3.0 | 0.00 | 0.00 | 0.00 | 97 | 1023.5 |
| 20260830113031 | 69 | 151 | 1.0 | 5.0 | 0.00 | 0.00 | 0.00 | 97 | 1023.2 |
| 20260830111540 | 69 | 148 | 1.0 | 4.0 | 0.00 | 0.00 | 0.00 | 97 | 1023.1 |
| 20260830110027 | 69 | 141 | 0.0 | 3.0 | 0.00 | 0.00 | 0.00 | 97 | 1022.9 |
| 20260830104528 | 69 | 144 | 2.0 | 5.0 | 0.00 | 0.00 | 0.00 | 96 | 1022.8 |
| 20260830103036 | 69 | 148 | 1.0 | 6.0 | 0.00 | 0.00 | 0.00 | 96 | 1022.5 |
| 20260830101526 | 69 | 151 | 1.0 | 3.0 | 0.00 | 0.00 | 0.00 | 95 | 1022.5 |
| 20260830100031 | 69 | 156 | 1.0 | 3.0 | 0.00 | 0.00 | 0.00 | 95 | 1022.5 |
| 20260830094522 | 70 | 155 | 0.0 | 2.0 | 0.00 | 0.00 | 0.00 | 95 | 1022.4 |
| 20260830093020 | 70 | 155 | 1.0 | 3.0 | 0.00 | 0.00 | 0.00 | 95 | 1022.4 |
| 20260830091529 | 70 | 139 | 2.0 | 5.0 | 0.00 | 0.00 | 0.00 | 95 | 1022.5 |
| 20260830090017 | 70 | 148 | 2.0 | 3.0 | 0.00 | 0.00 | 0.00 | 94 | 1022.5 |
| 20260830084518 | 70 | 148 | 0.0 | 1.0 | 0.00 | 0.00 | 0.00 | 94 | 1022.6 |
| 20260830083017 | 70 | 148 | 0.0 | 2.0 | 0.00 | 0.00 | 0.00 | 94 | 1022.6 |
| 20260830081516 | 70 | 148 | 0.0 | 2.0 | 0.00 | 0.00 | 0.00 | 94 | 1022.7 |
| 20260830080014 | 70 | 147 | 0.0 | 3.0 | 0.00 | 0.00 | 0.00 | 94 | 1022.6 |
| 20260830074516 | 70 | 147 | 2.0 | 4.0 | 0.00 | 0.00 | 0.00 | 94 | 1022.7 |
| 20260830073012 | 70 | 148 | 1.0 | 3.0 | 0.00 | 0.00 | 0.00 | 94 | 1022.7 |
| 20260830071511 | 70 | 146 | 0.0 | 1.0 | 0.00 | 0.00 | 0.00 | 93 | 1022.9 |
| 20260830070010 | 71 | 146 | 0.0 | 4.0 | 0.00 | 0.00 | 0.00 | 93 | 1022.9 |
| 20260830064513 | 71 | 148 | 2.0 | 5.0 | 0.00 | 0.00 | 0.00 | 92 | 1022.8 |
| 20260830063007 | 71 | 149 | 0.0 | 3.0 | 0.00 | 0.00 | 0.00 | 92 | 1022.8 |
| 20260830061505 | 71 | 148 | 0.0 | 3.0 | 0.00 | 0.00 | 0.00 | 92 | 1022.8 |
| 20260830060003 | 71 | 148 | 0.0 | 2.0 | 0.00 | 0.00 | 0.00 | 91 | 1023.0 |
| 20260830054505 | 72 | 148 | 1.0 | 2.0 | 0.00 | 0.00 | 0.00 | 91 | 1023.2 |
| 20260830053100 | 72 | 148 | 0.0 | 4.0 | 0.00 | 0.00 | 0.00 | 90 | 1023.2 |
| 20260830051612 | 72 | 153 | 1.0 | 4.0 | 0.00 | 0.00 | 0.00 | 90 | 1023.3 |